Time,TemperatureF,DewpointF,PressureIn,WindDirection,WindDirectionDegrees,WindSpeedMPH,WindSpeedGustMPH,Humidity,HourlyPrecipIn,Conditions,Clouds,dailyrainin,SoftwareType,DateUTC
2013-12-26 00:22:00,34.0,24.0,30.18,SSW,213,0.0,6.0,66,0.00,,,0.00,,2013-12-26 05:22:00,
2013-12-26 00:32:00,34.0,24.0,30.18,SSW,213,0.0,6.0,66,0.00,,,0.00,,2013-12-26 05:32:00,
2013-12-26 00:53:00,34.0,24.0,30.18,West,262,1.0,9.0,67,0.00,,,0.00,,2013-12-26 05:53:00,
2013-12-26 01:02:00,34.0,24.0,30.18,West,262,1.0,9.0,67,0.00,,,0.00,,2013-12-26 06:02:00,
2013-12-26 01:22:00,34.0,25.0,30.16,WSW,246,1.0,9.0,70,0.00,,,0.00,,2013-12-26 06:22:00,
2013-12-26 01:33:00,34.0,25.0,30.16,WSW,246,1.0,9.0,70,0.00,,,0.00,,2013-12-26 06:33:00,
2013-12-26 01:40:00,33.0,26.0,30.16,West,273,9.0,13.0,74,0.00,,,0.00,,2013-12-26 06:40:00,
2013-12-26 01:52:00,34.0,25.0,30.16,WSW,246,1.0,9.0,70,0.00,,,0.00,,2013-12-26 06:52:00,
2013-12-26 02:11:00,33.0,26.0,30.16,West,273,9.0,13.0,74,0.00,,,0.00,,2013-12-26 07:11:00,
2013-12-26 02:22:00,33.0,26.0,30.16,West,273,9.0,13.0,74,0.00,,,0.00,,2013-12-26 07:22:00,
2013-12-26 02:32:00,33.0,26.0,30.16,West,273,9.0,13.0,74,0.00,,,0.00,,2013-12-26 07:32:00,
2013-12-26 03:22:00,32.0,27.0,30.18,West,259,5.0,16.0,80,0.00,,,0.00,,2013-12-26 08:22:00,
2013-12-26 03:53:00,32.0,27.0,30.18,WNW,291,13.0,16.0,81,0.00,,,0.00,,2013-12-26 08:53:00,
2013-12-26 04:02:00,32.0,27.0,30.18,WNW,291,13.0,16.0,81,0.00,,,0.00,,2013-12-26 09:02:00,
2013-12-26 04:12:00,32.0,27.0,30.18,WNW,291,13.0,16.0,81,0.00,,,0.00,,2013-12-26 09:12:00,
2013-12-26 04:22:00,32.0,27.0,30.18,WNW,291,13.0,16.0,81,0.00,,,0.00,,2013-12-26 09:22:00,
2013-12-26 05:22:00,33.0,28.0,30.18,West,259,11.0,13.0,80,0.00,,,0.00,,2013-12-26 10:22:00,
2013-12-26 05:32:00,33.0,28.0,30.18,West,259,11.0,13.0,80,0.00,,,0.00,,2013-12-26 10:32:00,
2013-12-26 05:52:00,33.0,28.0,30.19,West,277,5.0,13.0,81,0.00,,,0.00,,2013-12-26 10:52:00,
2013-12-26 06:02:00,33.0,28.0,30.19,West,277,5.0,13.0,81,0.00,,,0.00,,2013-12-26 11:02:00,
2013-12-26 06:22:00,33.0,28.0,30.21,WNW,289,6.0,13.0,82,0.00,,,0.00,,2013-12-26 11:22:00,
2013-12-26 06:43:00,33.0,28.0,30.22,WNW,287,5.0,17.0,80,0.00,,,0.00,,2013-12-26 11:43:00,
2013-12-26 06:52:00,33.0,28.0,30.22,WNW,287,5.0,17.0,80,0.00,,,0.00,,2013-12-26 11:52:00,
2013-12-26 07:12:00,32.0,25.0,30.22,West,276,6.0,17.0,75,0.00,,,0.00,,2013-12-26 12:12:00,
2013-12-26 07:22:00,32.0,25.0,30.22,West,276,6.0,17.0,75,0.00,,,0.00,,2013-12-26 12:22:00,
2013-12-26 07:32:00,32.0,25.0,30.22,West,276,6.0,17.0,75,0.00,,,0.00,,2013-12-26 12:32:00,
2013-12-26 07:53:00,31.0,24.0,30.24,WSW,244,3.0,15.0,75,0.00,,,0.00,,2013-12-26 12:53:00,
2013-12-26 08:12:00,31.0,24.0,30.24,WSW,244,3.0,15.0,75,0.00,,,0.00,,2013-12-26 13:12:00,
2013-12-26 08:22:00,31.0,24.0,30.24,WSW,244,3.0,15.0,75,0.00,,,0.00,,2013-12-26 13:22:00,
2013-12-26 08:42:00,30.0,23.0,30.27,West,280,4.0,13.0,76,0.00,,,0.00,,2013-12-26 13:42:00,
2013-12-26 08:53:00,30.0,23.0,30.27,West,280,4.0,13.0,76,0.00,,,0.00,,2013-12-26 13:53:00,
2013-12-26 09:22:00,30.0,23.0,30.29,WSW,241,10.0,13.0,76,0.00,,,0.00,,2013-12-26 14:22:00,
2013-12-26 09:32:00,30.0,23.0,30.29,WSW,241,10.0,13.0,76,0.00,,,0.00,,2013-12-26 14:32:00,
2013-12-26 09:52:00,30.0,23.0,30.29,WSW,241,10.0,13.0,76,0.00,,,0.00,,2013-12-26 14:52:00,
2013-12-26 10:22:00,31.0,24.0,30.32,WSW,252,5.0,13.0,74,0.00,,,0.00,,2013-12-26 15:22:00,
2013-12-26 10:53:00,32.0,24.0,30.33,WNW,288,4.0,16.0,71,0.00,,,0.00,,2013-12-26 15:53:00,
2013-12-26 11:03:00,32.0,24.0,30.33,WNW,288,4.0,16.0,71,0.00,,,0.00,,2013-12-26 16:03:00,
2013-12-26 11:10:00,33.0,23.0,30.34,NW,307,6.0,14.0,67,0.00,,,0.00,,2013-12-26 16:10:00,
2013-12-26 11:13:00,32.0,24.0,30.33,WNW,288,4.0,16.0,71,0.00,,,0.00,,2013-12-26 16:13:00,
2013-12-26 11:23:00,32.0,24.0,30.33,WNW,288,4.0,16.0,71,0.00,,,0.00,,2013-12-26 16:23:00,
2013-12-26 11:42:00,33.0,23.0,30.34,NW,307,6.0,14.0,67,0.00,,,0.00,,2013-12-26 16:42:00,
2013-12-26 11:53:00,33.0,23.0,30.34,NW,307,6.0,14.0,67,0.00,,,0.00,,2013-12-26 16:53:00,
2013-12-26 12:02:00,33.0,23.0,30.34,NW,307,6.0,14.0,67,0.00,,,0.00,,2013-12-26 17:02:00,
2013-12-26 14:22:00,38.0,23.0,30.31,WSW,246,5.0,15.0,54,0.00,,,0.00,,2013-12-26 19:22:00,
2013-12-26 14:32:00,38.0,23.0,30.31,WSW,246,5.0,15.0,54,0.00,,,0.00,,2013-12-26 19:32:00,
2013-12-26 14:52:00,38.0,23.0,30.31,WSW,246,5.0,15.0,54,0.00,,,0.00,,2013-12-26 19:52:00,
2013-12-26 15:22:00,39.0,23.0,30.30,WSW,254,5.0,13.0,53,0.00,,,0.00,,2013-12-26 20:22:00,
2013-12-26 15:33:00,39.0,23.0,30.30,WSW,254,5.0,13.0,53,0.00,,,0.00,,2013-12-26 20:33:00,
2013-12-26 15:52:00,39.0,23.0,30.30,West,267,5.0,12.0,52,0.00,,,0.00,,2013-12-26 20:52:00,
2013-12-26 16:22:00,39.0,21.0,30.31,WSW,252,11.0,12.0,49,0.00,,,0.00,,2013-12-26 21:22:00,
2013-12-26 16:33:00,39.0,21.0,30.31,WSW,252,11.0,12.0,49,0.00,,,0.00,,2013-12-26 21:33:00,
2013-12-26 16:53:00,39.0,21.0,30.31,WSW,252,11.0,12.0,49,0.00,,,0.00,,2013-12-26 21:53:00,
2013-12-26 17:23:00,38.0,20.0,30.32,West,265,2.0,10.0,48,0.00,,,0.00,,2013-12-26 22:23:00,
2013-12-26 17:33:00,38.0,20.0,30.32,West,265,2.0,10.0,48,0.00,,,0.00,,2013-12-26 22:33:00,
2013-12-26 17:52:00,37.0,20.0,30.32,WSW,245,1.0,9.0,50,0.00,,,0.00,,2013-12-26 22:52:00,
2013-12-26 18:03:00,37.0,20.0,30.32,WSW,245,1.0,9.0,50,0.00,,,0.00,,2013-12-26 23:03:00,
2013-12-26 18:22:00,35.0,21.0,30.32,SSW,192,1.0,9.0,56,0.00,,,0.00,,2013-12-26 23:22:00,
2013-12-26 18:53:00,35.0,22.0,30.33,WSW,246,1.0,1.0,58,0.00,,,0.00,,2013-12-26 23:53:00,
2013-12-26 19:02:00,35.0,22.0,30.33,WSW,246,1.0,1.0,58,0.00,,,0.00,,2013-12-27 00:02:00,
2013-12-26 19:12:00,35.0,22.0,30.33,WSW,246,1.0,1.0,58,0.00,,,0.00,,2013-12-27 00:12:00,
2013-12-26 19:22:00,35.0,22.0,30.33,WSW,246,1.0,1.0,58,0.00,,,0.00,,2013-12-27 00:22:00,
2013-12-26 19:42:00,33.0,21.0,30.32,SSE,157,0.0,2.0,60,0.00,,,0.00,,2013-12-27 00:42:00,
2013-12-26 19:52:00,33.0,21.0,30.32,SSE,157,0.0,2.0,60,0.00,,,0.00,,2013-12-27 00:52:00,
2013-12-26 20:11:00,33.0,21.0,30.33,SW,234,0.0,2.0,61,0.00,,,0.00,,2013-12-27 01:11:00,
2013-12-26 20:22:00,33.0,21.0,30.33,SW,234,0.0,2.0,61,0.00,,,0.00,,2013-12-27 01:22:00,
2013-12-26 20:42:00,32.0,22.0,30.32,SSW,207,0.0,1.0,65,0.00,,,0.00,,2013-12-27 01:42:00,
2013-12-26 20:52:00,32.0,22.0,30.32,SSW,207,0.0,1.0,65,0.00,,,0.00,,2013-12-27 01:52:00,
2013-12-26 21:22:00,31.0,22.0,30.32,SSE,157,1.0,1.0,69,0.00,,,0.00,,2013-12-27 02:22:00,
2013-12-26 21:32:00,31.0,22.0,30.32,SSE,157,1.0,1.0,69,0.00,,,0.00,,2013-12-27 02:32:00,
2013-12-26 21:52:00,31.0,22.0,30.32,SSE,157,1.0,1.0,69,0.00,,,0.00,,2013-12-27 02:52:00,
2013-12-26 22:22:00,32.0,24.0,30.32,SE,138,1.0,2.0,71,0.00,,,0.00,,2013-12-27 03:22:00,
2013-12-26 22:53:00,33.0,25.0,30.32,SSE,163,1.0,1.0,72,0.00,,,0.00,,2013-12-27 03:53:00,
2013-12-26 23:23:00,35.0,26.0,30.32,South,172,4.0,4.0,69,0.00,,,0.00,,2013-12-27 04:23:00,
2013-12-26 23:53:00,35.0,26.0,30.31,South,186,2.0,4.0,68,0.00,,,0.00,,2013-12-27 04:53:00,